Temp
5 5 5 5 5 5 5 4 4 4 4 4 3 3 3 4 4 3 4 4 4 4 4 4 4 3 3 3 3 3 3 3 2 2 2 2 2 2 2 2 2 2
5 5 5 5 5 5 4 4 4 4 4 4 3 3 4 4 3 3 4 4 4 4 4 4 3 3 3 3 3 3 3 3 3 2 2 3 2 2 3 2 2 2
5 5 5 5 5 4 4 4 4 4 4 3 3 3 3 3 3 3 3 4 4 4 4 3 3 3 3 4 3 3 3 3 3 3 3 3 3 3 3 3 3 3
5 5 5 5 5 4 4 4 4 4 4 3 3 3 3 3 3 3 3 4 4 4 3 3 3 3 3 3 3 3 3 3 3 3 3 3 3 3 3 3 3 3
5 5 5 5 5 4 4 4 4 3 3 3 3 3 3 2 2 2 3 3 4 4 3 3 3 3 3 3 3 3 3 3 3 3 3 3 3 3 3 3 3 3
5 5 5 5 4 4 4 4 3 3 3 3 2 2 2 2 2 2 3 3 4 4 3 3 3 3 3 3 3 3 3 3 3 3 3 3 3 3 3 3 3 3
5 4 4 4 4 4 4 4 3 3 3 2 2 2 2 2 2 2 3 3 4 3 3 3 3 3 3 3 3 3 3 3 3 3 3 3 3 3 3 3 3 3
5 5 4 4 4 4 4 4 3 3 3 2 2 2 2 2 2 2 3 3 3 3 3 3 3 3 3 3 3 3 3 3 3 3 3 3 3 3 3 3 3 3
5 5 5 5 4 4 4 4 3 3 3 2 2 2 2 2 2 2 3 3 3 3 3 3 3 3 3 3 3 3 3 3 3 3 3 3 3 3 3 3 3 3
5 5 5 5 5 4 4 3 3 3 3 2 1 1 2 2 2 2 2 3 3 3 3 3 2 2 3 3 3 3 3 3 3 3 3 3 3 3 3 3 3 3
5 5 5 5 5 4 4 3 3 3 3 2 1 1 1 2 2 2 2 2 2 3 3 3 2 2 2 2 3 3 3 3 3 3 3 3 3 3 3 3 3 3
4 4 5 4 4 4 3 3 3 3 2 2 1 1 1 1 2 2 2 2 2 3 3 3 3 2 2 2 2 2 2 2 2 3 3 3 3 3 3 3 3 3
4 4 4 4 4 4 3 2 3 2 2 1 1 1 1 1 1 2 2 2 3 3 2 3 3 2 2 2 2 2 2 2 2 2 2 2 3 3 3 3 3 3
4 4 4 4 4 4 3 2 2 2 2 2 1 1 1 1 1 2 2 2 3 3 3 3 3 3 3 2 2 2 2 2 2 2 2 2 2 3 3 3 3 3
3 3 3 4 4 3 3 2 2 2 2 2 1 1 1 0 1 1 2 2 2 2 3 3 3 3 3 3 2 2 2 2 2 2 2 2 2 2 2 3 3 3
3 3 3 3 3 3 3 2 2 2 2 2 1 1 1 1 1 1 2 2 2 2 3 3 2 3 3 3 2 2 2 2 2 2 2 2 2 2 2 3 3 2
3 3 3 3 3 3 3 2 2 1 1 2 2 1 1 1 1 1 2 2 2 2 2 2 2 3 3 3 3 2 2 2 1 2 2 2 2 2 2 2 2 2
2 2 3 3 3 3 3 2 2 2 1 1 2 1 1 1 1 1 1 1 1 2 2 2 2 2 2 2 2 2 2 2 1 1 1 1 2 2 2 2 2 2
1 2 2 2 3 3 3 2 2 2 2 1 1 1 1 1 1 1 1 1 1 1 1 2 2 2 2 2 2 2 2 2 1 1 1 1 1 1 2 2 2 2
1 1 1 2 2 2 2 2 2 2 2 2 1 1 1 1 1 1 1 1 1 1 1 1 1 1 1 2 2 2 2 2 2 1 1 1 1 1 1 2 2 2
0 0 1 1 1 2 2 2 2 2 2 2 1 1 1 1 1 1 1 1 1 1 1 1 1 1 1 1 1 2 2 2 2 1 1 1 1 1 1 1 2 2
-0 -0 0 0 1 1 1 1 1 2 2 2 1 1 1 1 1 1 1 1 1 1 1 1 1 1 1 1 1 1 1 2 2 1 1 1 1 1 1 1 1 2
-1 -1 -1 -0 -0 0 0 0 0 1 1 1 1 1 1 1 1 1 1 1 1 1 1 1 1 0 0 1 1 1 1 1 1 1 1 1 1 1 1 1 1 2
-1 -1 -1 -1 -1 -0 -0 -0 -0 -0 -0 0 1 1 1 1 1 1 1 1 1 1 1 0 1 0 0 0 0 1 1 1 1 1 1 1 1 1 1 1 1 1
-2 -2 -2 -1 -1 -1 -1 -1 -1 -1 -1 -1 -0 -0 0 0 0 0 0 1 1 1 1 0 0 0 0 0 0 0 0 0 1 1 1 1 1 1 1 1 1 1
-2 -2 -2 -2 -2 -2 -1 -1 -1 -1 -1 -1 -1 -1 -1 -0 -0 -0 0 0 1 1 1 0 0 0 0 0 0 0 0 0 0 0 0 0 0 0 1 1 1 1
Height
3138 3136 3136 3135 3135 3135 3134 3133 3133 3132 3131 3130 3130 3130 3130 3129 3128 3128 3130 3130 3129 3129 3128 3128 3129 3129 3130 3130 3130 3131 3131 3132 3133 3134 3135 3136 3137 3137 3138 3138 3138 3138
3136 3135 3134 3133 3132 3132 3131 3130 3129 3128 3126 3126 3125 3125 3126 3126 3125 3125 3127 3128 3127 3126 3125 3125 3126 3127 3128 3128 3129 3130 3130 3131 3132 3133 3134 3135 3136 3136 3137 3137 3136 3137
3134 3133 3132 3131 3130 3129 3128 3126 3125 3123 3122 3121 3121 3121 3121 3122 3121 3121 3123 3124 3124 3123 3122 3122 3123 3124 3125 3126 3127 3128 3128 3129 3130 3131 3132 3133 3134 3135 3136 3135 3135 3135
3132 3131 3130 3129 3128 3127 3126 3124 3122 3119 3118 3117 3117 3116 3117 3118 3118 3118 3119 3120 3120 3119 3118 3119 3121 3122 3123 3124 3125 3126 3127 3127 3128 3128 3129 3130 3131 3133 3134 3133 3134 3134
3130 3129 3128 3127 3126 3125 3124 3122 3119 3117 3114 3113 3113 3112 3113 3114 3114 3114 3115 3116 3116 3116 3115 3116 3118 3120 3121 3122 3123 3124 3125 3125 3126 3126 3127 3128 3129 3130 3131 3131 3132 3132
3128 3127 3126 3125 3124 3122 3121 3119 3117 3114 3112 3110 3109 3109 3110 3110 3110 3111 3112 3113 3113 3112 3112 3114 3115 3117 3119 3120 3121 3122 3123 3124 3124 3125 3125 3126 3127 3128 3128 3129 3129 3130
3125 3124 3123 3122 3121 3120 3118 3116 3114 3112 3109 3107 3106 3106 3106 3107 3107 3107 3108 3109 3109 3109 3109 3110 3112 3114 3116 3117 3119 3120 3121 3122 3122 3123 3124 3124 3125 3126 3126 3127 3127 3128
3122 3121 3120 3119 3118 3117 3115 3113 3111 3109 3106 3104 3102 3102 3103 3103 3103 3104 3104 3105 3105 3105 3106 3106 3107 3110 3113 3114 3116 3118 3119 3119 3120 3121 3122 3123 3123 3124 3124 3125 3125 3126
3119 3118 3117 3116 3115 3114 3112 3110 3108 3105 3103 3100 3098 3098 3099 3100 3100 3100 3100 3100 3100 3101 3102 3103 3104 3107 3110 3112 3114 3115 3116 3117 3118 3118 3120 3121 3122 3122 3123 3123 3124 3124
3116 3115 3114 3113 3112 3110 3109 3107 3105 3102 3099 3096 3095 3094 3095 3095 3096 3097 3096 3096 3097 3098 3099 3100 3102 3104 3107 3109 3111 3112 3113 3114 3115 3116 3118 3119 3120 3121 3121 3122 3122 3123
3114 3112 3111 3110 3109 3107 3106 3104 3101 3099 3096 3093 3091 3091 3091 3092 3093 3094 3093 3093 3095 3096 3097 3099 3100 3102 3104 3107 3108 3110 3111 3112 3113 3114 3116 3117 3118 3119 3119 3120 3120 3121
3112 3110 3109 3107 3106 3104 3103 3101 3099 3096 3092 3089 3087 3087 3088 3089 3089 3090 3091 3092 3093 3094 3095 3096 3097 3099 3102 3104 3105 3107 3108 3110 3111 3112 3113 3115 3116 3116 3117 3118 3118 3119
3109 3108 3106 3105 3103 3101 3100 3098 3096 3093 3089 3086 3084 3084 3084 3085 3087 3088 3089 3090 3089 3089 3090 3092 3093 3096 3099 3101 3102 3104 3106 3107 3108 3110 3111 3112 3113 3114 3115 3115 3116 3117
3107 3106 3104 3103 3101 3099 3098 3096 3094 3091 3088 3085 3084 3083 3081 3082 3084 3085 3086 3086 3084 3085 3088 3090 3091 3093 3096 3098 3100 3101 3103 3105 3106 3107 3108 3109 3110 3112 3113 3113 3114 3114
3105 3103 3102 3101 3099 3097 3095 3094 3092 3090 3087 3084 3083 3081 3080 3081 3083 3084 3084 3084 3082 3084 3088 3091 3092 3092 3093 3096 3097 3099 3101 3102 3104 3105 3105 3106 3108 3109 3110 3111 3112 3112
3102 3101 3100 3098 3097 3095 3094 3092 3090 3089 3087 3084 3082 3081 3081 3082 3083 3083 3084 3083 3082 3083 3087 3090 3090 3090 3091 3093 3095 3097 3099 3100 3101 3102 3103 3104 3105 3106 3108 3108 3109 3110
3099 3098 3097 3096 3095 3094 3092 3090 3089 3087 3086 3084 3083 3082 3082 3083 3083 3083 3083 3083 3082 3082 3085 3087 3087 3086 3087 3090 3093 3095 3097 3098 3099 3100 3101 3102 3103 3104 3105 3106 3106 3107
3097 3096 3095 3094 3093 3092 3090 3089 3087 3086 3085 3084 3083 3083 3082 3083 3083 3083 3083 3083 3082 3082 3084 3085 3084 3083 3084 3087 3090 3093 3095 3096 3097 3098 3099 3100 3101 3102 3103 3103 3104 3104
3095 3094 3093 3091 3090 3089 3088 3087 3086 3084 3084 3083 3082 3082 3082 3082 3082 3082 3083 3083 3082 3082 3082 3082 3083 3083 3083 3085 3088 3090 3092 3093 3094 3095 3097 3098 3098 3099 3100 3101 3101 3102
3094 3092 3091 3089 3088 3087 3086 3085 3084 3083 3082 3081 3080 3080 3080 3081 3081 3081 3081 3081 3081 3081 3080 3081 3082 3083 3083 3084 3085 3087 3089 3091 3092 3093 3094 3095 3096 3096 3097 3098 3098 3099
3092 3091 3089 3087 3086 3084 3083 3083 3082 3081 3080 3079 3078 3078 3078 3078 3079 3079 3079 3079 3079 3079 3079 3079 3080 3081 3082 3082 3083 3085 3086 3088 3089 3090 3091 3092 3093 3093 3094 3094 3095 3096
3091 3089 3088 3086 3085 3083 3081 3080 3079 3078 3077 3076 3075 3075 3075 3075 3076 3076 3076 3076 3076 3076 3076 3077 3078 3079 3080 3080 3081 3082 3083 3084 3086 3087 3088 3089 3089 3090 3090 3091 3092 3092
3089 3088 3086 3085 3083 3082 3080 3078 3076 3075 3074 3074 3073 3072 3072 3072 3072 3072 3073 3073 3072 3072 3073 3074 3075 3076 3077 3077 3078 3079 3080 3081 3083 3084 3084 3085 3086 3086 3087 3088 3089 3090
3088 3086 3085 3083 3082 3080 3079 3077 3075 3073 3072 3071 3070 3069 3068 3068 3068 3068 3069 3068 3067 3068 3069 3070 3071 3072 3073 3073 3074 3076 3077 3078 3079 3080 3080 3081 3083 3083 3084 3085 3086 3087
3086 3085 3083 3082 3080 3078 3077 3075 3074 3072 3071 3069 3068 3067 3066 3065 3064 3064 3064 3064 3063 3064 3065 3065 3067 3068 3069 3069 3070 3072 3073 3074 3075 3076 3076 3078 3079 3080 3081 3082 3083 3084
3084 3083 3081 3080 3078 3077 3075 3074 3072 3071 3069 3068 3066 3065 3064 3063 3062 3061 3060 3060 3059 3060 3061 3061 3062 3063 3064 3065 3066 3067 3068 3069 3070 3071 3072 3073 3074 3075 3076 3077 3079 3080
Wind_Speed
28 29 29 29 29 28 28 28 29 30 31 31 30 30 28 27 26 25 22 21 21 22 21 20 22 21 18 19 19 17 17 18 19 20 20 19 19 19 19 18 18 18
24 25 26 26 27 27 28 29 31 32 33 34 33 32 30 28 27 27 25 22 21 22 22 20 21 21 20 19 20 18 18 18 19 20 20 20 19 18 17 17 18 18
19 20 20 20 20 21 22 26 29 32 33 32 31 29 28 26 27 28 27 24 22 22 21 20 20 20 20 20 20 19 18 17 18 19 20 19 17 16 16 17 18 19
17 16 16 16 16 18 19 21 25 29 32 30 28 27 26 25 28 29 28 26 24 22 20 20 21 21 21 21 19 17 17 18 18 19 19 18 17 16 17 19 19 19
16 15 16 17 18 20 20 21 22 25 29 29 28 27 25 25 27 28 28 26 24 22 20 20 21 21 21 20 18 17 18 19 19 19 18 18 18 18 18 19 20 19
17 17 18 19 20 21 21 21 22 24 26 28 27 26 25 24 25 26 26 25 24 22 20 20 21 21 20 19 18 18 18 18 18 18 19 19 19 19 18 19 19 19
20 20 21 21 21 21 21 21 23 24 25 26 27 25 23 23 25 25 24 24 25 23 21 20 20 19 19 19 18 18 17 17 17 18 18 19 18 18 17 18 18 18
22 22 22 22 21 22 22 22 24 26 27 26 27 26 23 24 26 25 23 24 26 24 23 21 18 17 18 18 18 18 17 16 16 16 17 18 18 18 17 17 17 18
22 22 22 22 22 23 22 22 25 28 29 27 27 27 26 27 27 25 24 24 25 23 21 19 16 16 18 18 18 18 16 15 16 16 17 18 18 18 18 18 18 18
21 21 21 21 22 22 23 22 25 28 29 27 26 28 29 30 28 26 25 25 24 23 20 17 15 17 18 18 18 17 16 16 16 17 18 18 19 19 19 19 19 18
20 20 20 21 21 22 21 21 24 28 30 27 25 28 31 31 28 25 24 24 25 23 21 19 17 18 18 18 18 17 16 16 16 17 18 19 19 20 20 20 20 19
19 19 20 20 21 22 20 20 23 27 30 28 24 26 29 29 27 24 22 23 23 23 22 21 19 18 18 18 16 15 15 15 16 17 19 19 20 21 21 21 21 20
19 19 20 20 21 21 19 19 22 24 28 28 21 23 27 28 27 24 22 21 22 23 23 22 22 20 19 18 15 14 14 14 16 18 19 20 21 21 21 21 22 22
20 20 20 20 21 20 18 19 20 21 25 27 19 20 25 27 26 23 21 21 21 21 21 22 23 22 20 17 14 13 13 14 16 18 20 21 21 21 21 21 22 22
21 20 20 19 19 20 19 19 20 19 22 26 20 18 22 25 25 21 19 20 21 20 19 20 20 19 18 16 13 12 13 14 16 18 20 20 21 21 21 21 22 22
22 21 20 19 17 18 19 18 19 18 18 23 21 15 18 20 21 20 19 19 21 22 21 19 18 17 17 15 14 13 13 14 16 18 19 20 20 21 21 21 22 22
21 21 21 20 18 17 18 18 18 19 16 18 20 14 15 18 19 21 22 21 22 24 23 21 20 20 18 16 14 14 14 14 15 17 18 19 20 21 21 21 22 22
21 21 21 21 19 17 17 17 18 19 19 17 17 16 14 17 20 21 22 22 23 24 23 22 22 19 18 16 16 15 15 15 16 17 18 18 19 20 21 21 21 21
21 21 21 21 21 19 16 16 17 19 20 20 17 16 15 16 19 21 22 24 24 25 24 23 21 18 17 18 18 17 17 16 16 17 18 18 19 20 21 21 21 22
20 21 21 22 22 21 18 16 17 17 19 20 21 20 17 16 16 19 22 24 25 26 27 25 22 20 20 20 20 20 19 18 17 18 18 19 20 20 21 21 22 22
20 20 20 20 22 22 21 18 17 17 18 19 21 23 23 20 19 19 21 23 24 26 27 27 25 24 23 24 24 23 22 21 20 18 19 20 20 21 22 22 22 23
19 19 19 18 19 20 21 20 18 17 17 17 19 22 24 26 25 24 25 25 26 26 27 28 29 27 26 26 26 25 24 24 22 20 20 21 21 22 22 22 23 24
18 18 17 17 17 17 18 19 19 18 18 18 17 18 21 25 29 29 30 30 30 29 29 29 29 29 29 29 28 28 27 27 25 23 22 22 22 22 23 23 24 24
17 17 17 16 16 16 15 16 16 16 17 18 18 17 17 20 24 28 30 32 33 32 31 31 30 30 31 32 32 31 31 30 28 27 24 23 24 25 25 25 26 26
18 18 18 17 16 15 15 15 14 14 13 14 16 17 17 16 18 22 26 29 31 32 33 33 32 32 33 34 34 34 34 33 32 31 29 27 26 28 28 28 28 28
20 20 20 19 18 16 15 15 15 14 12 11 11 13 15 16 17 18 21 24 26 28 29 31 33 33 34 35 36 37 37 37 36 35 35 33 31 30 30 30 30 29
Wind_Direction
286 287 287 287 287 287 286 283 281 279 279 280 280 279 279 280 280 277 272 270 273 274 269 258 247 241 234 231 236 236 232 227 220 222 228 228 227 230 233 235 236 238
285 286 287 288 289 289 287 284 281 278 276 276 277 276 275 274 274 273 268 264 265 266 263 254 244 240 236 233 235 235 234 232 228 227 231 233 232 230 233 238 240 241
290 289 290 292 296 299 298 292 285 279 275 274 273 273 271 265 263 264 263 260 259 260 256 248 241 239 237 237 237 236 236 236 236 234 236 238 238 234 236 242 244 245
296 295 295 299 307 313 314 309 299 286 277 272 268 267 265 258 253 255 256 254 255 256 251 242 238 237 236 237 238 237 235 234 235 235 236 238 240 239 241 245 247 245
297 297 298 303 311 315 317 319 316 300 282 271 264 261 259 254 248 248 248 248 250 252 247 238 235 235 235 237 239 238 236 235 236 236 235 236 238 241 244 245 244 243
296 296 298 303 310 315 318 320 320 313 291 273 262 257 255 249 244 242 242 244 245 243 238 233 232 233 235 238 240 240 239 241 241 239 238 238 238 240 242 243 242 242
296 297 299 303 307 311 315 316 317 317 302 279 262 255 251 241 235 236 237 240 241 235 229 226 226 229 233 235 237 238 239 241 241 240 238 237 238 240 239 239 239 241
298 298 300 302 303 304 307 311 314 316 310 289 264 249 242 232 229 233 234 237 237 230 223 220 220 224 229 230 232 234 235 238 239 237 236 236 237 238 237 236 238 240
301 301 302 302 301 299 299 305 313 316 313 297 268 247 237 229 226 228 231 233 234 229 222 217 214 219 224 224 227 230 233 236 237 235 234 236 236 236 236 236 237 239
303 303 305 305 303 299 296 302 314 319 317 301 271 247 237 231 225 223 226 228 228 229 226 217 212 216 221 222 224 227 230 231 233 234 234 236 237 237 237 236 237 239
304 305 307 309 309 304 300 303 313 322 323 308 276 249 238 233 228 224 224 224 222 223 223 216 210 213 218 223 225 227 230 232 233 235 237 238 238 238 238 238 238 239
305 307 309 312 313 310 303 304 313 324 328 317 287 257 242 232 228 227 225 223 219 214 215 214 209 212 218 223 227 232 236 240 241 242 242 241 240 240 240 240 239 239
307 309 312 314 316 313 303 302 315 328 332 323 294 259 244 230 223 227 228 223 218 212 211 211 207 210 217 221 227 236 243 248 249 249 247 244 243 242 241 241 240 239
309 311 314 315 316 315 303 298 311 331 339 331 299 254 238 224 219 228 231 224 221 219 219 220 213 208 211 219 227 237 246 252 252 252 251 247 245 243 241 241 240 237
311 313 316 316 315 314 305 297 304 323 344 339 310 258 230 219 217 227 234 229 225 224 224 227 220 208 208 218 227 234 245 252 255 256 254 250 247 244 242 242 240 237
313 314 317 318 315 313 306 298 298 307 333 342 324 272 228 219 219 225 232 232 230 229 228 230 225 216 213 219 226 235 246 253 255 256 254 251 248 243 241 241 238 235
317 316 317 318 316 312 306 298 294 293 304 329 332 300 244 226 222 223 229 233 233 232 233 235 232 224 219 222 229 237 245 251 254 254 251 247 246 243 241 239 236 233
319 318 317 317 317 315 309 299 293 289 286 296 317 316 283 248 234 230 231 233 236 237 237 237 235 228 223 226 232 237 242 248 251 251 249 245 242 241 240 238 236 234
321 320 318 317 317 316 312 303 295 290 284 280 285 299 300 278 257 246 238 234 236 239 242 243 242 235 230 230 233 236 241 245 247 249 249 246 242 239 239 239 238 236
322 321 318 317 316 315 314 309 301 293 286 280 272 272 280 284 276 264 254 248 244 241 241 243 243 239 235 234 235 236 239 242 245 246 247 246 243 241 240 239 239 237
320 320 318 317 315 314 313 311 306 299 291 283 272 264 262 264 267 266 263 261 255 247 241 240 241 239 237 235 236 237 238 240 242 244 246 246 243 242 241 240 239 237
320 320 318 317 314 314 314 312 308 303 296 289 278 266 258 255 255 256 258 259 258 253 246 242 239 239 239 238 238 239 240 240 241 243 246 246 243 242 242 241 240 238
322 322 321 319 316 314 314 314 312 306 300 295 289 275 262 254 250 250 252 253 253 253 252 249 244 241 241 240 240 241 242 243 242 242 243 244 244 244 243 243 243 240
327 328 327 324 320 316 313 313 314 311 305 299 297 292 278 264 254 250 249 251 251 250 250 252 250 246 243 242 241 243 244 245 245 244 243 244 246 247 246 246 246 243
333 334 334 332 328 322 316 312 311 312 309 302 298 297 293 283 268 256 251 252 255 254 252 251 251 249 245 243 242 243 244 245 246 245 243 244 247 249 248 247 246 244
334 335 336 336 335 332 326 319 314 312 311 306 299 295 293 289 281 269 259 256 256 257 257 254 253 251 249 247 246 244 243 243 245 246 246 244 244 245 246 246 245 245